Retour au catalogue

NIMBUS 2 DEB

ActifLEO
NORAD 28208·DEBRIS·🇺🇸 United States

Lancé May 15, 1966 depuis Vandenberg Space Force Base

Loading…

Prochains Passages (prochaines 24 heures)

TLE

FraisSource: Space-Track

Époque: Sep 14, 2026, 13:40 UTC

1 28208U 66040W   26257.56969142  .00001392  00000-0  17288-2 0  9993
2 28208 100.3166 299.5614 0040519  21.2492 137.7468 13.66516847267282

Suivez NIMBUS 2 DEB en temps réel avec AllMySat

Download on the App Store